TimeMDT,TemperatureF,Dew PointF,Humidity,Sea Level PressureIn,VisibilityMPH,Wind Direction,Wind SpeedMPH,Gust SpeedMPH,PrecipitationIn,Events,Conditions,WindDirDegrees,DateUTC
12:53 AM,55.9,39.0,53,29.79,10.0,Variable,6.9,-,N/A,,Clear,0,2013-05-15 06:53:00
1:53 AM,52.0,36.0,54,29.81,10.0,NW,5.8,-,N/A,,Clear,320,2013-05-15 07:53:00
2:53 AM,51.1,33.1,50,29.81,10.0,WNW,3.5,-,N/A,,Clear,300,2013-05-15 08:53:00
3:53 AM,44.1,33.1,65,29.83,10.0,West,6.9,-,N/A,,Clear,260,2013-05-15 09:53:00
4:53 AM,42.1,34.0,73,29.84,10.0,WSW,6.9,-,N/A,,Clear,250,2013-05-15 10:53:00
5:53 AM,41.0,33.1,73,29.84,10.0,West,5.8,-,N/A,,Clear,280,2013-05-15 11:53:00
6:53 AM,48.0,36.0,63,29.84,10.0,WSW,5.8,-,N/A,,Clear,240,2013-05-15 12:53:00
7:53 AM,55.9,36.0,47,29.84,10.0,WSW,5.8,-,N/A,,Clear,250,2013-05-15 13:53:00
8:53 AM,62.1,34.0,35,29.87,10.0,NW,8.1,-,N/A,,Clear,310,2013-05-15 14:53:00
9:53 AM,63.0,35.1,35,29.88,10.0,Variable,3.5,-,N/A,,Clear,0,2013-05-15 15:53:00
10:53 AM,69.1,37.0,31,29.83,10.0,Variable,3.5,-,N/A,,Clear,0,2013-05-15 16:53:00
11:53 AM,70.0,35.1,28,29.81,10.0,ESE,4.6,-,N/A,,Clear,120,2013-05-15 17:53:00
12:53 PM,77.0,35.1,22,29.76,10.0,SSW,5.8,-,N/A,,Clear,200,2013-05-15 18:53:00
1:53 PM,78.1,34.0,20,29.75,10.0,West,5.8,-,N/A,,Clear,260,2013-05-15 19:53:00
2:53 PM,80.1,32.0,17,29.70,10.0,ESE,6.9,-,N/A,,Clear,110,2013-05-15 20:53:00
3:06 PM,78.8,30.2,17,29.87,10.0,Variable,4.6,-,N/A,Thunderstorm,Clear,0,2013-05-15 21:06:00
3:21 PM,78.8,30.2,17,29.87,10.0,Variable,3.5,-,N/A,,Partly Cloudy,0,2013-05-15 21:21:00
3:53 PM,81.0,30.9,16,29.69,10.0,ENE,9.2,-,0.00,,Mostly Cloudy,60,2013-05-15 21:53:00
4:38 PM,71.6,33.8,25,29.88,10.0,NNW,23.0,31.1,N/A,,Overcast,330,2013-05-15 22:38:00
4:53 PM,68.0,37.9,33,29.76,10.0,NW,21.9,31.1,0.00,Rain,Light Rain,310,2013-05-15 22:53:00
5:15 PM,68.0,37.4,33,29.90,10.0,NNW,13.8,32.2,0.00,Rain-Thunderstorm,Light Rain,330,2013-05-15 23:15:00
5:25 PM,69.8,37.4,31,29.91,10.0,NNW,13.8,-,0.00,Thunderstorm,Overcast,340,2013-05-15 23:25:00
5:50 PM,69.8,37.4,31,29.92,10.0,WSW,17.3,21.9,0.00,Rain,Light Rain,240,2013-05-15 23:50:00
5:53 PM,69.1,37.9,32,29.81,10.0,WSW,13.8,21.9,0.00,Rain,Light Rain,240,2013-05-15 23:53:00
6:53 PM,63.0,43.0,48,29.82,9.0,Variable,6.9,21.9,0.00,Rain,Light Rain,0,2013-05-16 00:53:00
7:53 PM,60.1,46.0,60,29.79,10.0,ENE,9.2,-,0.00,,Mostly Cloudy,60,2013-05-16 01:53:00
8:53 PM,57.9,46.9,67,29.78,10.0,East,9.2,-,N/A,,Scattered Clouds,100,2013-05-16 02:53:00
9:53 PM,55.9,48.0,75,29.81,10.0,SW,4.6,-,N/A,,Overcast,220,2013-05-16 03:53:00
10:53 PM,55.9,48.0,75,29.81,10.0,SSW,6.9,-,0.00,Rain,Light Rain,200,2013-05-16 04:53:00
11:53 PM,54.0,48.0,80,29.80,7.0,SW,11.5,-,0.00,Rain,Light Rain,230,2013-05-16 05:53:00